Theta_e
294 294 294 295 295 296 298 301 306 309 310 312 314 315 316 318 318 319 322 323 325 327 327 327 326 327 327 328 328 328 328 329 329 330 331 332 332 333 332 332 331 327 325 324 322 317 317 315 312 309 306 306 306 307 307 306 304 302 302 300 299 297 295 296 295 296 294 293 292 291 291 290 291 292 290 289 290 291 291 292 293 292 292 291 292
292 294 294 291 293 294 293 296 300 304 308 310 312 315 316 317 317 319 319 321 324 326 327 327 328 329 328 328 328 328 326 325 326 327 329 329 330 331 331 332 332 330 325 326 324 322 319 316 314 312 309 306 306 307 307 305 305 303 302 299 299 298 296 295 296 297 295 296 294 292 291 290 289 289 289 289 289 290 290 290 290 291 292 291 289
291 292 291 291 291 292 292 294 298 303 304 308 311 312 313 315 317 317 318 320 322 323 324 325 327 327 328 327 328 325 322 325 327 325 324 326 327 329 330 331 331 331 329 326 326 324 322 320 317 315 311 308 306 307 308 307 306 304 302 300 298 297 297 296 296 299 298 295 293 293 292 292 295 291 289 288 289 289 289 289 290 289 290 291 289
292 292 292 290 290 290 290 292 295 298 302 303 308 311 313 313 316 317 318 319 320 321 319 322 319 318 318 318 318 323 321 317 319 316 321 323 325 326 328 329 330 330 330 328 327 326 325 323 321 318 315 311 308 307 306 305 306 305 303 301 300 296 295 293 296 297 297 296 292 295 291 291 291 296 294 292 289 289 289 289 289 290 289 289 287
292 293 292 291 290 291 291 292 292 297 300 303 305 309 312 313 314 316 316 317 318 317 318 315 314 312 311 311 311 314 312 314 314 317 318 319 321 323 325 326 328 329 330 329 326 327 326 325 324 322 319 315 311 309 308 307 307 306 304 301 300 300 297 294 294 296 297 301 300 289 287 288 293 295 290 292 286 287 287 288 289 289 289 289 288
290 292 292 291 291 290 290 289 291 293 297 300 303 307 307 310 311 312 313 313 316 315 315 315 316 317 315 318 317 316 318 316 316 319 318 318 320 322 322 324 326 327 329 330 328 327 328 327 326 324 322 319 315 313 312 310 308 307 305 303 301 301 301 297 294 295 297 298 299 298 296 299 293 290 294 297 288 288 288 288 288 288 289 289 288
287 288 289 289 290 290 291 291 291 292 293 295 298 303 305 307 308 311 312 311 311 311 313 314 314 315 316 319 319 318 318 319 319 316 320 318 314 318 321 322 324 325 326 328 329 328 328 328 327 325 324 322 318 316 314 312 311 309 307 305 303 302 301 298 296 295 295 296 296 297 294 293 294 291 292 293 292 289 286 287 287 287 288 288 289
287 289 290 290 290 291 293 293 292 293 292 291 296 299 303 305 305 308 308 309 309 311 312 315 316 315 314 315 315 317 317 318 314 313 307 308 311 314 316 319 321 323 325 326 328 328 327 328 329 328 326 324 319 316 315 314 313 311 308 307 305 303 302 301 299 296 293 294 295 294 295 295 294 293 294 295 295 291 291 287 287 287 287 287 289
288 290 294 294 294 293 292 292 292 291 291 292 295 297 299 301 302 303 307 308 307 309 311 312 314 315 315 315 315 315 315 315 307 305 308 304 307 307 310 315 318 320 322 323 325 326 325 325 327 327 326 325 317 319 317 316 315 313 310 307 305 304 302 302 302 299 296 297 295 294 294 295 294 292 292 290 292 294 296 292 288 286 286 287 287
289 290 290 292 292 292 291 290 291 292 290 291 292 294 296 298 301 302 304 304 304 306 309 310 311 311 313 313 314 315 311 308 305 305 303 301 306 306 306 309 314 317 319 321 322 323 324 323 323 325 326 326 320 320 319 318 316 315 313 310 308 305 305 303 302 303 300 299 299 297 294 294 293 292 292 290 289 292 296 294 291 288 285 287 287
292 292 291 291 290 289 289 292 290 291 290 290 292 292 293 296 298 301 302 301 301 305 307 309 310 311 313 313 313 313 311 307 306 306 302 300 304 304 304 306 308 312 315 316 318 320 321 320 322 323 324 321 321 322 322 321 318 316 315 312 309 307 306 304 302 303 303 300 299 298 297 296 295 293 294 292 292 291 288 291 292 290 291 291 288
292 293 294 293 294 294 292 293 291 291 291 292 291 291 292 293 295 299 299 299 299 302 303 306 307 309 309 310 311 311 309 309 308 309 307 306 305 305 303 301 303 305 309 312 315 316 317 319 318 320 320 321 322 323 322 319 318 317 315 313 310 308 307 305 305 303 302 302 299 299 298 298 297 297 298 297 294 294 295 296 294 289 287 288 288
292 293 294 296 295 295 295 293 292 291 291 290 290 290 291 293 294 298 298 296 297 299 301 302 303 306 307 308 308 306 307 308 308 308 306 307 306 305 303 304 301 301 305 308 311 314 315 316 317 318 319 319 319 319 319 318 317 315 314 313 312 309 308 307 305 304 303 302 302 300 299 299 298 299 299 299 298 297 296 294 295 290 292 288 287
290 291 294 294 294 295 294 294 293 291 289 289 288 289 290 293 293 295 296 294 294 296 298 300 302 304 303 305 306 305 306 306 307 307 307 306 305 305 305 305 305 304 304 304 308 310 312 314 315 317 318 318 318 319 319 318 316 315 314 313 312 311 310 308 306 305 305 304 304 303 301 299 299 300 299 299 298 296 294 293 294 288 287 290 286
290 294 294 294 295 292 294 295 295 295 293 290 288 288 289 292 292 294 294 294 294 295 296 298 300 300 300 301 303 303 305 305 306 306 305 305 304 304 305 304 304 304 304 304 301 303 306 309 312 313 315 315 316 316 316 316 316 314 313 314 313 312 311 309 308 306 305 305 304 303 303 302 301 301 300 299 299 298 297 296 294 292 290 287 286
292 293 295 295 294 294 295 295 295 295 293 293 292 290 291 291 291 292 293 294 293 293 295 296 298 298 297 299 301 301 301 302 303 302 303 303 304 304 304 303 303 303 300 299 301 302 303 304 306 308 311 312 313 313 314 314 314 313 314 313 312 311 309 308 308 307 306 306 305 304 303 303 303 302 301 300 299 299 299 298 296 294 294 294 289
292 293 293 294 294 295 294 294 295 296 296 295 293 291 291 291 292 292 292 291 293 293 294 294 295 295 297 298 299 299 300 301 303 302 302 301 301 302 302 302 300 299 301 299 300 299 301 302 303 304 306 308 310 311 311 311 312 311 311 311 311 311 310 310 309 308 308 307 306 305 304 304 304 303 301 301 300 300 299 299 298 297 297 294 294
291 291 291 291 291 292 293 294 293 294 293 294 293 291 290 290 291 292 292 292 292 292 294 294 294 295 296 296 297 299 300 300 300 301 300 300 300 300 298 299 300 300 299 299 299 299 299 298 300 301 301 304 306 307 308 308 308 308 308 308 309 307 307 306 306 306 306 306 305 305 304 303 304 302 302 301 299 299 298 298 298 298 298 296 295
292 292 293 293 293 293 292 292 291 292 293 292 292 292 293 291 290 291 292 291 292 292 292 292 292 295 296 296 296 298 298 299 299 298 297 299 300 299 299 300 297 296 297 297 296 296 296 296 297 298 298 299 300 302 303 305 306 306 306 306 307 306 306 306 306 305 305 305 304 304 303 303 303 302 301 299 298 298 298 297 297 296 295 297 296
291 291 292 292 292 292 292 292 293 293 293 293 292 293 293 292 291 292 292 291 291 291 290 291 292 292 294 293 294 295 296 297 297 297 298 298 299 299 299 297 298 296 297 295 296 296 295 295 295 296 297 297 297 297 298 301 302 304 304 304 304 304 304 304 305 304 305 304 303 302 301 301 301 299 298 297 296 295 296 296 295 295 295 294 295
291 291 292 292 292 292 292 291 291 291 291 293 293 292 292 292 293 292 292 293 294 293 291 292 290 291 290 292 293 292 293 294 294 294 296 297 298 296 297 297 292 295 293 294 295 296 296 295 295 295 296 297 298 298 299 300 300 301 302 302 303 302 302 303 302 300 299 301 300 300 300 300 300 298 298 297 296 296 295 295 294 293 293 293 292
290 290 290 292 292 292 292 292 292 293 293 292 292 293 293 292 291 291 291 293 292 294 293 293 292 291 290 291 291 289 291 290 291 292 293 295 295 295 294 290 293 296 292 295 295 295 294 294 295 296 296 297 298 299 299 299 300 300 300 301 301 300 299 299 298 299 298 298 297 297 298 298 298 297 297 296 296 294 293 293 293 292 293 292 292
289 288 288 289 289 289 289 289 290 290 290 289 291 292 291 291 290 290 290 292 290 291 290 289 290 290 290 289 288 289 289 288 289 291 290 292 292 290 289 292 293 293 290 292 294 293 293 293 293 294 296 296 296 297 298 299 299 300 300 300 300 299 298 297 297 297 297 296 295 295 296 297 297 295 295 295 294 294 293 293 293 292 292 292 292
288 287 287 287 287 287 291 292 292 292 291 291 291 291 291 291 291 291 292 292 291 291 290 290 290 290 288 287 288 288 287 287 288 290 290 290 291 290 288 289 291 291 291 290 290 292 292 292 292 293 294 295 295 295 295 296 298 298 299 299 298 297 298 297 297 297 297 295 295 294 295 295 294 294 294 294 294 293 293 292 292 292 291 291 292
288 288 288 288 287 289 290 290 290 290 289 289 290 290 290 290 290 291 291 290 290 290 290 290 289 290 290 290 289 288 287 288 288 288 289 289 289 289 288 289 289 290 290 290 290 289 290 291 293 293 294 294 295 295 295 295 296 297 297 297 297 297 296 296 296 296 295 296 295 295 295 295 294 293 293 293 292 291 292 291 291 292 291 291 291
288 287 288 289 289 288 288 288 288 288 288 288 289 289 290 290 290 288 290 290 290 288 289 289 289 289 290 290 290 290 290 289 289 289 289 289 289 288 289 288 288 290 290 290 291 290 290 291 291 292 293 294 294 294 294 295 295 295 295 295 296 296 296 296 296 295 295 295 295 295 295 294 294 293 293 293 292 291 291 291 290 291 290 290 289
287 287 288 287 287 288 289 289 288 288 288 288 289 290 290 290 290 289 289 289 289 289 290 289 289 288 289 290 290 290 291 290 290 289 289 289 289 288 288 289 288 289 289 290 289 290 290 290 291 291 292 292 293 293 293 294 294 295 294 294 294 294 294 294 295 295 294 294 294 294 294 294 294 293 293 293 292 291 291 290 290 290 290 288 288
288 288 288 288 288 288 288 288 289 289 289 289 288 288 289 289 289 289 289 288 289 289 289 289 289 289 289 290 290 289 290 290 290 289 289 289 289 289 288 288 287 288 289 289 289 290 290 289 290 291 291 291 291 292 293 293 293 293 293 293 293 293 293 293 293 293 293 293 294 294 294 294 294 293 293 293 292 291 290 290 290 289 288 287 287
289 289 289 289 289 288 288 288 288 289 289 289 289 289 288 288 287 287 287 288 287 287 287 288 288 288 289 289 289 289 289 288 289 289 289 289 289 289 289 288 287 288 288 288 289 289 289 289 290 289 290 290 291 292 293 292 292 293 292 292 292 292 292 292 292 292 292 292 292 292 292 293 291 290 291 291 292 292 290 289 288 288 287 287 286
288 288 288 288 287 287 287 287 288 288 288 288 289 289 289 288 288 288 287 287 286 286 286 286 286 287 287 287 287 287 287 287 288 288 288 288 288 288 288 288 288 288 288 288 287 287 288 289 289 290 290 290 291 293 291 292 293 292 292 292 292 292 292 292 291 291 291 291 291 291 291 289 289 289 289 290 291 291 291 291 290 287 287 286 286
286 287 287 287 286 286 286 287 287 287 287 288 288 288 287 287 287 287 287 286 285 285 285 286 287 286 286 286 285 286 286 286 287 286 287 287 288 287 287 287 287 287 288 288 287 287 287 287 288 289 289 290 291 292 292 294 295 295 293 291 291 291 291 291 291 291 291 290 290 290 290 289 288 288 288 289 290 291 290 290 290 289 288 287 286
286 285 285 286 286 286 287 287 287 287 287 287 287 287 287 288 287 287 287 286 286 286 286 286 286 286 286 286 286 286 285 285 285 286 286 286 286 286 286 287 287 287 287 286 286 287 287 287 288 288 288 289 290 291 293 294 294 295 294 292 291 291 291 291 290 290 290 290 290 289 289 289 289 289 288 288 288 289 290 290 289 288 288 289 289
286 285 284 284 285 285 285 286 286 287 287 287 286 286 287 287 287 286 286 286 286 286 286 287 287 287 287 287 287 287 286 286 286 286 286 285 285 285 285 286 287 286 285 286 287 287 287 287 287 288 288 289 290 291 293 293 294 294 295 293 292 291 291 290 290 290 290 289 289 288 288 288 288 286 287 287 287 287 288 289 288 287 288 288 289
283 284 283 284 284 285 285 285 285 285 285 285 285 285 286 285 285 285 285 285 285 286 286 286 286 286 286 286 286 286 286 286 286 286 286 286 286 286 286 286 286 286 285 286 286 286 286 286 286 287 288 288 289 290 292 293 293 293 294 294 292 291 291 290 290 290 290 289 288 288 287 287 286 285 286 286 286 286 286 286 285 285 285 286 288
284 283 284 284 284 284 284 285 285 285 285 284 285 284 285 285 284 284 284 284 285 285 285 286 286 286 286 286 285 285 285 285 285 285 286 286 286 286 287 287 287 287 286 287 287 287 287 287 286 286 287 287 288 290 291 292 292 293 294 293 292 290 290 289 289 289 289 289 288 288 287 287 286 285 285 286 285 285 285 285 285 285 285 285 285
285 285 284 284 285 285 285 285 284 283 284 283 285 285 285 285 284 283 284 284 284 284 285 285 286 285 285 285 284 284 284 284 284 285 285 285 285 286 286 287 287 287 286 286 286 285 286 286 287 286 286 287 288 290 291 291 292 293 293 290 290 289 289 288 288 288 288 288 288 288 287 286 285 285 285 287 286 285 285 284 284 284 284 284 284
283 284 284 283 283 284 284 284 284 284 285 285 285 284 284 284 284 285 284 284 284 285 285 285 285 285 284 284 284 283 283 283 283 283 284 284 284 285 286 285 285 286 286 286 286 286 286 286 286 286 286 286 287 288 290 290 291 292 292 289 288 288 288 287 287 287 287 287 287 286 286 286 285 284 286 288 288 286 285 284 283 283 283 283 283
282 283 284 283 284 284 283 283 284 284 284 284 284 283 283 283 284 284 284 284 284 285 285 285 285 284 284 284 283 283 282 282 283 282 283 283 284 284 285 284 284 284 285 286 286 286 285 284 284 285 285 286 286 287 288 290 290 291 290 288 288 287 287 287 286 286 286 286 285 285 285 285 284 284 286 288 288 286 284 284 283 282 282 282 282
283 283 284 285 285 284 283 283 283 284 285 283 282 281 282 283 283 283 283 283 284 285 285 284 284 284 283 283 282 282 282 282 282 282 282 282 283 283 283 283 283 283 283 284 283 283 284 284 282 283 283 284 284 285 287 289 290 290 290 287 287 287 286 286 286 285 285 284 284 284 285 285 285 285 288 288 288 286 285 284 283 283 282 281 282
282 283 282 283 282 283 285 285 284 284 284 283 282 282 281 282 282 282 282 283 284 284 284 284 283 283 283 282 282 281 281 281 281 281 281 281 281 281 281 282 282 282 282 282 281 281 281 282 282 281 281 281 282 283 284 288 289 290 290 288 286 286 286 286 285 285 284 283 283 283 284 286 286 287 288 289 288 287 285 284 284 283 282 281 283
282 283 283 282 282 282 283 283 283 283 283 282 281 281 282 282 281 281 282 283 283 283 283 283 282 282 282 281 281 280 280 280 279 279 280 280 279 280 280 280 280 280 280 280 280 280 280 280 280 279 279 279 280 281 282 286 288 289 290 289 286 286 286 286 285 284 283 282 281 282 283 285 287 287 288 289 288 288 286 285 285 284 284 283 283
281 281 281 281 280 282 282 282 282 282 281 281 280 280 281 281 280 281 282 282 282 282 282 281 281 281 280 280 280 280 280 279 279 278 278 279 279 278 278 278 278 278 278 278 279 278 279 279 279 277 277 278 279 281 280 284 286 288 289 290 287 286 286 286 285 283 282 281 281 282 282 284 286 287 288 288 288 288 287 285 285 286 286 285 283
281 281 280 281 280 281 282 282 282 281 281 280 277 278 280 280 280 281 282 282 282 281 281 280 279 279 279 279 279 279 279 279 278 278 277 277 278 278 278 276 276 276 277 277 278 278 277 278 278 277 276 277 277 279 283 283 285 287 288 289 289 288 288 286 284 282 281 281 282 282 282 284 286 287 288 289 288 288 287 285 287 287 286 285 283
280 280 280 279 280 280 281 281 281 279 277 278 276 278 278 279 280 282 281 281 280 280 279 278 278 278 278 278 278 278 278 277 277 277 276 276 277 278 277 276 275 275 276 277 278 277 276 277 277 278 278 277 278 278 281 283 284 285 287 288 289 289 289 285 283 282 282 281 282 282 283 285 286 286 287 288 288 287 285 287 287 286 285 283 281
280 280 279 278 279 279 279 279 279 279 279 276 275 275 277 277 279 280 280 280 279 278 277 277 277 277 277 278 278 278 277 277 276 275 275 277 277 277 277 277 274 275 275 276 277 276 276 278 278 279 280 280 280 281 281 282 284 284 285 287 288 289 289 288 283 282 282 282 283 284 284 285 286 286 287 288 287 286 287 287 287 286 283 281 280
278 277 278 276 276 274 274 276 277 277 278 276 275 274 276 278 279 278 278 278 277 276 276 276 276 277 277 277 277 277 277 277 276 275 274 275 275 275 276 276 274 275 275 275 276 277 278 279 279 280 281 281 281 281 281 282 283 284 284 285 287 288 286 286 284 282 282 283 284 284 285 285 285 286 285 285 285 285 286 286 285 283 281 280 280
275 277 275 275 273 274 273 273 274 275 276 276 274 274 276 277 277 277 277 276 275 275 275 275 275 276 277 276 276 276 277 277 276 275 274 274 274 274 274 275 275 275 275 276 277 278 279 280 280 280 281 280 280 280 281 281 282 283 284 285 285 285 285 284 282 282 282 283 284 284 284 285 285 285 285 285 285 285 285 284 282 281 280 280 280
274 273 272 271 272 272 273 273 273 275 275 275 275 274 275 275 275 276 275 274 274 274 274 275 275 275 276 276 275 276 276 276 276 275 275 276 275 273 274 275 276 276 276 277 278 279 280 280 280 280 280 280 280 280 281 281 282 283 283 283 283 282 282 281 280 281 281 282 283 284 285 285 285 284 284 284 284 283 282 280 279 279 279 279 279
271 271 271 271 271 271 271 271 271 272 272 272 272 272 273 273 274 274 274 274 274 274 274 274 274 275 275 276 275 275 275 275 275 275 275 274 275 275 276 275 276 276 277 277 277 278 279 280 280 279 279 279 280 280 281 284 283 284 283 282 281 281 281 280 281 282 282 283 283 283 283 283 282 281 281 280 279 279 278 277 277 276 276 276 276
269 270 269 269 268 269 268 269 270 270 269 269 269 270 271 272 273 274 274 273 273 273 273 274 275 275 275 276 276 276 275 275 275 275 275 276 277 279 278 276 276 279 281 282 282 279 279 279 279 280 281 280 279 281 284 285 285 285 285 284 283 283 283 281 283 284 283 282 282 282 282 281 280 279 278 278 277 276 274 273 274 275 274 274 274
268 268 267 266 267 267 267 266 267 267 267 267 268 270 271 272 274 275 274 273 272 272 273 273 274 275 275 276 276 276 277 277 277 276 276 276 276 278 281 282 282 281 282 282 283 283 284 284 281 279 280 283 284 284 284 285 285 285 285 284 284 284 283 283 284 283 281 281 280 279 279 279 279 278 277 276 275 274 273 273 272 272 272 273 272
Wind_Speed
2 4 5 6 6 6 6 6 7 6 7 8 9 10 11 12 10 12 10 8 8 8 8 8 9 7 7 9 10 6 6 6 6 6 5 5 8 10 11 9 9 11 12 12 12 11 10 8 7 7 8 10 10 10 10 11 10 10 8 5 8 8 6 6 5 6 7 2 0 3 4 2 4 4 5 4 5 4 4 5 4 4 5 4 4
5 7 6 5 5 5 4 5 5 6 10 9 12 14 11 8 10 11 6 8 10 11 10 9 10 10 9 9 8 6 6 7 7 6 7 5 6 7 8 10 11 10 9 9 10 10 10 10 11 10 7 6 6 5 5 6 4 4 3 5 4 7 6 5 5 7 2 8 5 3 4 4 6 5 5 5 6 6 5 5 4 5 6 5 3
6 8 5 5 6 6 4 5 6 10 7 9 10 7 7 9 11 10 9 9 10 10 9 11 9 8 9 6 7 5 4 6 6 5 5 6 6 7 7 7 7 8 10 12 11 10 10 10 10 9 11 10 9 8 7 7 7 9 7 6 4 3 1 3 8 10 5 3 2 3 3 2 4 5 5 8 10 8 6 6 6 6 7 5 4
11 8 6 4 5 5 4 5 6 4 5 5 7 10 8 8 9 10 10 9 9 10 10 7 5 4 3 2 2 4 4 3 4 4 5 7 8 6 6 6 6 7 7 8 9 11 12 11 9 8 9 9 10 10 11 13 12 11 11 11 9 7 6 7 10 12 6 9 3 8 2 2 5 9 10 9 9 8 8 8 6 8 7 6 4
10 10 8 6 5 5 5 5 3 5 6 6 5 7 7 9 7 6 6 7 6 6 8 4 4 4 3 2 2 1 1 1 3 5 6 6 6 7 8 5 5 7 8 10 9 9 10 10 9 9 9 10 10 10 10 11 11 12 13 11 12 12 10 6 8 10 11 11 5 6 2 1 9 3 2 5 5 6 10 9 8 8 8 7 6
7 8 8 7 7 7 5 3 3 4 5 5 5 6 5 5 5 5 5 4 5 4 5 5 6 7 6 6 6 6 7 6 9 10 8 8 10 6 5 7 7 7 6 7 9 10 10 10 10 10 9 8 9 9 9 9 10 9 11 12 12 11 10 8 8 7 10 10 10 4 2 6 5 3 2 7 0 7 3 8 10 10 8 7 8
4 4 5 5 6 5 5 4 3 3 5 4 4 5 6 5 5 5 5 4 4 4 5 6 6 6 9 10 10 10 10 10 8 6 7 7 4 6 7 6 8 9 9 8 8 8 9 9 9 10 9 9 9 10 11 12 11 11 9 9 11 12 11 11 13 10 7 10 11 11 8 2 3 7 8 2 6 1 5 7 9 7 6 8 10
3 4 4 3 2 2 4 5 4 4 4 3 3 3 4 5 4 5 4 5 5 5 7 8 8 8 8 9 9 9 10 11 7 6 4 4 5 7 6 7 7 9 9 9 9 8 7 8 9 10 10 11 10 9 9 7 5 6 9 12 10 8 10 12 11 8 12 11 13 13 14 6 4 2 2 7 6 4 5 4 5 7 6 9 11
3 3 5 6 5 4 3 3 4 4 3 2 1 1 1 2 3 4 5 5 4 6 7 7 8 8 9 8 9 9 8 7 3 3 5 4 5 5 6 6 7 8 9 10 9 9 7 7 8 9 9 9 8 10 12 13 15 14 13 12 13 13 13 14 11 12 12 12 9 12 12 11 5 3 1 1 7 8 12 7 7 3 6 9 11
2 3 4 5 5 5 4 3 4 4 4 3 2 1 1 2 3 4 4 3 4 5 6 6 7 7 8 8 10 9 6 4 2 4 4 3 6 5 5 5 6 7 7 8 9 8 8 7 7 8 9 9 8 9 8 8 8 9 11 12 13 14 12 12 15 12 12 12 11 8 9 8 6 6 7 8 6 8 14 8 7 9 9 11 11
6 5 5 4 3 3 5 5 4 4 4 4 4 3 2 2 3 3 2 2 3 5 6 8 7 7 9 9 10 10 7 5 5 6 4 4 6 6 5 6 5 6 5 6 7 7 8 8 8 8 8 8 8 8 10 12 13 13 12 11 12 14 12 13 12 11 10 11 12 11 13 12 14 14 15 12 12 9 7 11 10 9 12 8 7
5 7 7 6 7 7 6 7 6 5 4 5 4 3 3 2 2 2 1 3 4 4 4 5 5 5 5 5 7 7 5 6 7 9 7 8 7 7 5 4 5 5 5 5 6 7 8 9 9 8 8 7 9 9 9 6 5 7 9 11 12 12 11 10 11 14 15 10 11 11 10 9 10 11 12 12 13 13 12 14 9 3 4 9 1
6 7 7 9 8 8 8 6 5 6 5 4 3 3 2 1 1 1 3 2 2 2 4 4 4 5 6 6 6 5 5 6 7 8 5 7 6 6 5 7 5 5 6 7 7 8 8 8 8 9 9 8 8 6 6 8 7 6 7 9 10 12 13 13 11 13 13 13 13 11 11 11 12 11 10 9 9 9 10 12 10 5 9 4 5
5 6 7 7 7 7 6 7 6 5 4 4 4 3 2 1 0 1 4 1 2 2 3 4 5 5 4 5 5 5 6 6 7 7 6 6 6 7 7 8 7 8 7 9 8 8 7 8 9 9 9 8 8 8 8 6 5 6 7 8 9 9 8 10 12 13 12 14 12 10 11 11 12 11 12 11 11 9 10 12 11 3 3 8 0
5 7 7 7 7 6 7 7 7 7 6 5 4 3 3 1 0 1 4 3 2 3 2 4 5 4 4 4 5 5 7 6 7 6 6 6 6 7 7 6 7 7 8 7 5 7 8 8 9 9 9 9 8 9 8 7 7 7 6 7 7 7 9 10 12 14 14 16 15 14 13 13 13 12 11 12 10 11 11 10 9 11 7 5 7
6 7 8 8 7 7 9 9 8 7 6 5 5 4 2 2 2 3 4 4 3 3 4 4 5 4 4 5 7 6 6 5 5 5 6 6 7 7 7 6 6 6 5 5 6 7 7 8 8 9 9 9 9 9 9 8 7 7 8 8 10 5 5 7 9 9 13 14 13 13 11 13 11 11 11 12 12 12 12 10 8 9 12 14 6
5 6 6 8 9 10 8 8 9 9 10 8 6 4 4 3 1 2 3 4 4 4 4 4 4 4 5 5 5 5 6 7 8 7 7 6 6 6 6 7 5 5 7 6 6 6 7 7 8 8 8 8 9 9 9 9 9 9 10 10 12 9 10 12 9 10 11 12 13 16 15 14 13 12 11 11 12 11 11 11 9 12 12 12 12
2 4 4 4 5 6 7 7 7 8 7 9 9 5 3 2 2 3 3 4 4 4 5 4 5 5 5 5 5 6 6 7 6 7 6 6 7 6 5 6 7 7 6 6 6 7 7 7 7 8 7 8 9 9 9 9 9 9 10 10 9 6 8 7 8 8 9 8 10 11 11 11 10 10 12 11 10 11 10 9 10 10 9 13 12
6 7 7 9 9 8 6 6 5 6 7 6 6 7 6 6 4 3 4 4 4 4 4 4 4 5 5 5 5 6 6 6 6 6 5 6 8 7 7 8 5 5 6 6 6 7 7 6 7 7 7 8 8 8 8 8 8 9 9 9 9 8 9 11 10 9 10 9 12 13 11 12 10 11 10 9 9 9 10 10 10 9 10 13 13
5 5 5 5 6 7 7 8 10 10 9 8 7 8 10 7 7 8 5 3 3 3 3 4 4 5 5 4 5 5 5 5 5 5 6 7 8 6 6 6 7 5 6 5 6 7 7 8 8 9 9 8 8 8 8 8 8 9 9 9 8 9 11 12 11 9 9 11 12 13 12 11 10 9 10 9 9 10 10 10 10 11 11 11 10
4 4 6 7 7 7 7 6 6 6 6 8 9 9 6 7 10 9 9 10 9 6 5 4 4 4 4 5 5 4 5 5 5 5 6 7 6 6 6 6 4 7 5 6 7 8 7 8 8 8 10 10 10 10 9 9 9 10 10 10 9 9 11 11 9 10 8 9 10 11 12 12 10 11 10 9 10 11 10 10 8 9 10 9 10
3 4 5 6 8 8 7 7 8 10 11 11 9 9 10 9 7 8 8 8 9 10 8 9 7 5 5 5 5 4 4 4 5 5 6 7 7 6 6 5 6 8 5 7 8 7 7 7 8 9 9 9 9 10 8 9 10 11 11 9 10 10 11 11 9 11 9 9 8 10 11 10 9 11 10 11 10 9 10 10 10 10 11 11 11
4 5 4 5 5 5 4 5 6 7 6 6 7 8 7 6 7 6 6 8 6 6 6 5 6 6 6 5 5 5 4 4 5 6 6 8 7 6 5 6 7 7 5 7 7 7 8 7 8 8 9 9 9 9 8 8 10 11 12 11 10 10 11 11 11 12 10 8 9 9 10 10 7 9 9 10 9 10 9 11 12 10 11 12 10
5 4 3 4 5 5 7 9 10 10 9 9 8 7 7 7 8 7 9 9 8 6 6 6 6 6 5 5 5 5 5 5 5 6 7 7 7 6 5 6 7 6 7 7 6 7 7 7 8 9 9 9 9 9 8 9 11 11 11 11 10 10 11 11 12 11 10 9 10 9 10 9 8 10 10 9 9 9 9 10 10 10 11 12 11
3 3 3 3 3 5 6 5 6 7 6 6 7 6 6 8 8 9 8 7 7 7 7 8 7 10 9 8 7 6 6 6 6 5 7 7 6 6 5 6 6 7 7 7 7 6 7 8 10 10 10 10 10 9 9 10 10 10 11 10 10 10 10 11 11 10 10 9 9 10 9 8 9 11 9 9 7 10 9 10 10 10 10 10 8
2 2 1 1 1 1 2 3 4 5 5 5 5 5 7 6 6 5 7 8 7 7 7 8 8 9 10 10 9 8 8 8 8 7 7 7 7 6 6 5 6 8 7 7 8 7 7 9 9 10 10 10 9 9 10 11 11 10 10 10 9 10 10 10 10 10 9 9 9 10 9 9 10 11 10 9 9 10 9 10 10 9 9 8 8
5 3 1 1 2 2 1 0 0 1 1 2 5 7 7 7 7 6 6 7 8 9 8 8 9 7 9 10 10 9 10 9 8 8 7 7 7 6 6 7 6 7 7 8 7 8 7 8 10 8 10 10 10 9 10 10 10 10 10 10 10 10 10 10 9 10 9 9 9 9 9 9 10 10 10 10 9 10 10 11 11 11 9 7 7
3 4 4 3 2 1 1 2 3 5 6 7 6 5 6 7 8 7 7 6 8 8 8 8 8 8 8 9 9 8 9 9 9 8 8 8 7 7 6 6 5 7 7 8 8 8 8 7 9 9 9 8 9 9 9 10 10 10 9 10 10 10 10 9 9 9 8 8 9 9 9 9 10 10 10 10 9 10 8 9 8 7 6 7 8
4 9 9 8 8 7 8 9 9 9 10 8 6 6 5 5 4 5 5 6 6 6 6 7 7 7 8 8 7 7 7 8 8 8 9 9 9 8 8 7 6 7 7 7 7 7 9 9 9 9 10 8 9 10 9 9 10 10 9 10 10 10 10 10 9 9 8 8 8 8 8 8 10 12 14 13 12 11 8 8 7 7 8 8 7
7 6 6 5 5 6 6 6 7 8 8 8 8 8 7 7 7 6 6 6 5 5 5 5 5 5 5 6 6 6 7 7 8 8 9 9 9 9 8 8 8 7 8 7 7 7 8 9 10 10 9 9 10 9 11 15 14 11 9 9 9 9 9 9 9 9 9 8 9 8 8 12 13 13 13 14 14 13 14 11 9 9 9 9 9
4 4 6 5 5 5 5 6 6 7 7 7 7 6 6 5 5 5 6 5 4 4 4 4 5 5 5 5 5 5 5 6 6 6 7 7 9 8 8 9 8 8 9 8 7 8 8 8 9 10 10 9 9 9 14 16 17 19 12 9 9 9 9 9 9 10 10 9 9 8 7 9 10 10 11 14 14 15 15 15 13 13 12 12 10
3 3 4 5 6 6 7 7 7 6 6 6 8 8 7 8 8 8 8 7 6 6 6 6 5 5 5 5 5 5 5 5 5 6 6 7 7 7 7 8 8 9 8 6 7 9 9 8 8 9 10 10 10 11 15 16 17 17 15 11 9 9 9 9 9 10 9 8 8 8 7 7 7 8 8 8 11 13 14 14 12 12 13 14 14
1 2 4 4 5 5 5 6 6 7 7 7 6 7 8 9 10 10 9 9 9 8 9 8 8 8 8 9 9 10 9 9 8 7 6 6 6 6 6 7 9 7 6 7 8 8 9 8 8 10 11 11 10 11 14 16 16 17 17 14 9 10 9 9 9 9 9 8 6 6 6 6 6 10 8 7 6 7 10 12 10 11 12 13 10
1 1 2 3 3 4 5 4 5 5 5 6 5 5 7 7 7 7 8 9 10 11 9 10 9 10 10 10 10 11 12 11 10 11 10 9 9 9 8 7 8 7 6 8 7 8 8 8 8 9 11 10 10 10 14 16 16 16 16 14 10 10 10 9 9 8 8 7 7 7 7 7 5 6 6 7 6 6 6 6 7 6 6 8 10
2 3 3 2 3 3 4 4 4 5 5 4 5 4 5 5 6 7 6 8 7 7 8 8 9 9 9 11 12 11 12 13 12 12 12 12 11 12 12 10 9 9 10 10 9 9 9 7 8 8 9 12 10 11 14 15 15 16 15 14 10 8 8 8 8 7 7 7 7 8 7 7 6 7 7 8 8 7 7 7 7 7 7 7 8
1 2 4 4 4 5 4 5 4 3 4 3 5 6 7 8 4 4 6 6 7 7 7 8 10 10 10 10 10 12 12 11 12 12 12 12 12 11 12 12 11 10 8 7 8 7 9 10 8 7 9 12 10 10 13 14 15 15 15 10 8 8 9 8 8 7 7 8 7 7 7 7 7 8 9 14 10 8 8 9 9 8 8 7 5
2 1 3 3 4 4 5 4 5 5 6 7 6 6 7 8 9 8 8 8 7 8 8 9 9 9 9 9 9 10 11 11 10 11 12 11 12 13 12 8 11 11 10 10 10 10 8 9 10 8 9 12 11 8 12 14 14 16 12 8 7 7 7 8 8 8 8 7 6 7 7 7 7 7 10 15 15 13 9 10 11 11 8 8 8
3 3 3 3 3 3 4 4 6 7 5 6 7 8 9 9 10 9 10 11 10 10 9 10 10 10 10 10 9 9 10 11 10 10 11 11 10 9 9 7 9 12 13 11 9 11 10 7 9 11 9 11 12 8 10 14 14 15 12 9 7 7 8 8 7 6 5 5 6 10 8 7 7 7 12 17 17 14 11 11 12 12 12 11 9
2 3 5 6 6 6 5 5 5 7 8 6 5 5 6 8 7 8 8 8 9 9 9 11 12 11 10 10 9 9 9 10 11 11 9 11 11 10 10 8 8 8 11 10 9 9 11 9 7 9 10 11 11 10 11 14 14 14 12 7 7 7 8 7 6 6 5 6 6 7 11 8 8 9 17 18 20 15 11 12 12 13 12 12 10
4 4 3 4 5 7 9 9 8 8 7 8 6 5 5 6 7 6 7 8 8 9 9 9 9 10 9 9 7 8 9 8 10 11 9 9 8 9 9 8 9 8 9 10 8 8 11 11 7 7 9 8 9 10 9 16 15 14 15 9 5 6 8 7 6 6 6 5 5 5 8 13 15 16 18 20 21 20 12 11 11 11 13 13 10
3 3 5 4 4 4 5 6 7 7 7 6 5 6 8 7 7 7 8 8 8 8 9 10 10 11 11 10 9 6 9 10 7 9 10 9 7 8 10 8 10 9 9 10 10 9 9 11 8 6 8 8 8 9 9 10 13 14 14 12 6 7 7 7 6 6 6 6 5 5 6 11 16 16 18 20 22 19 15 13 13 12 11 12 13
1 3 3 3 4 5 6 6 5 5 5 5 4 5 6 7 7 9 8 7 8 9 9 10 11 12 12 11 11 11 8 8 9 8 10 12 9 6 8 8 7 8 10 12 10 8 9 11 9 6 6 8 7 9 8 9 11 12 12 14 9 8 7 6 6 6 5 4 5 5 5 9 15 16 18 20 22 20 19 10 9 12 19 21 12
3 3 3 1 3 5 6 7 7 6 5 5 5 5 7 6 9 10 8 8 8 9 9 10 11 12 12 12 11 11 11 8 9 8 9 12 11 8 8 6 7 9 9 11 10 8 9 10 10 8 5 7 7 7 9 8 9 12 13 13 13 9 11 7 7 7 5 5 3 4 5 11 15 16 19 20 21 22 16 9 15 19 22 22 15
3 3 3 2 3 4 6 6 5 4 3 4 4 5 7 8 11 10 8 8 9 9 9 10 10 11 11 12 11 11 10 8 9 9 9 10 11 10 8 7 6 7 8 10 9 7 8 9 10 10 7 6 7 6 6 9 9 11 12 13 14 16 14 7 7 6 5 5 6 6 7 14 17 17 20 21 22 19 12 16 19 22 22 18 10
2 3 2 1 4 5 7 7 6 7 5 4 3 5 7 8 9 7 9 10 10 10 10 11 11 11 11 10 11 11 10 10 9 7 9 10 11 8 10 8 5 6 7 8 9 7 8 9 9 10 9 7 6 5 5 6 9 10 13 13 15 15 17 14 6 4 4 5 6 9 11 15 16 17 19 20 18 19 19 18 20 22 18 9 10
1 2 2 2 3 4 5 7 8 7 8 5 4 4 7 9 7 8 9 9 10 11 12 13 12 12 12 11 12 13 11 9 9 7 7 8 9 10 9 10 7 7 7 8 8 7 7 8 9 9 8 8 5 4 5 5 5 7 8 12 13 11 8 9 6 4 7 9 10 11 13 15 15 13 10 9 8 10 16 17 20 17 9 9 9
3 4 5 5 5 5 5 5 7 5 6 6 5 5 6 8 8 7 8 9 9 10 11 11 11 11 11 9 10 10 10 10 9 7 7 7 7 7 8 9 8 8 8 7 7 7 7 7 8 8 8 7 6 5 5 5 5 5 5 5 5 4 5 5 3 2 4 5 6 7 7 10 7 10 8 8 8 10 11 12 10 8 7 8 8
2 4 4 5 5 5 6 7 8 8 7 7 7 7 7 8 8 8 8 8 8 9 11 12 12 10 10 9 9 11 11 9 9 8 8 9 8 7 8 10 9 8 8 9 8 8 7 7 8 7 7 7 6 5 5 5 5 4 4 2 1 2 2 2 2 1 2 2 3 5 8 7 6 6 7 7 7 7 7 8 7 6 6 6 8
5 4 4 5 5 7 7 8 9 7 8 8 9 9 9 9 9 8 8 8 10 10 11 12 11 9 9 8 8 8 8 9 10 9 7 8 9 9 9 10 8 7 8 9 9 9 9 7 7 7 8 9 7 7 7 5 5 6 5 4 4 4 4 4 5 7 4 3 4 5 6 6 6 7 8 7 7 8 8 7 7 6 7 7 7
4 4 5 5 6 6 8 8 8 7 8 9 9 9 8 8 8 7 7 8 10 11 12 12 10 10 10 10 9 9 8 8 9 9 10 11 9 13 11 10 10 9 14 16 14 11 9 7 8 8 6 9 9 6 5 7 8 8 9 9 8 8 7 5 7 10 5 3 5 4 4 4 5 6 6 7 8 8 8 7 6 7 7 7 7
6 6 5 6 6 6 7 8 8 7 8 9 9 9 9 8 7 8 9 10 10 11 12 11 11 10 11 11 11 11 10 9 8 9 8 10 12 10 12 17 18 14 12 14 16 19 19 14 9 8 7 10 10 9 10 9 10 9 9 9 10 9 10 9 10 7 5 4 3 3 3 5 4 5 6 6 7 8 8 8 7 6 5 6 6
Wind_Direction
295 258 248 244 241 229 226 212 219 214 214 208 209 212 209 209 197 213 207 196 197 196 194 192 200 204 210 210 218 207 211 209 211 214 219 220 204 198 199 205 204 199 198 193 195 191 191 195 208 201 187 190 195 202 199 201 202 197 190 203 189 173 181 175 191 155 146 131 323 252 269 240 256 253 249 245 244 247 247 238 211 223 234 249 245
291 291 279 278 264 259 244 225 206 206 222 205 210 213 212 206 205 215 192 196 202 202 199 200 203 204 201 212 211 202 199 204 218 212 214 209 211 217 215 204 197 193 197 206 203 197 198 195 193 197 197 212 231 249 214 193 184 213 203 178 194 198 204 173 166 137 168 203 187 246 279 281 252 250 249 247 239 233 228 240 239 230 235 231 244
292 262 268 270 280 274 243 228 221 218 218 202 217 213 208 204 211 208 200 196 204 202 196 208 207 208 204 213 202 212 214 205 211 204 200 213 217 216 212 210 213 212 194 190 196 202 206 205 207 199 190 187 197 205 203 207 188 191 191 204 200 199 172 174 176 201 188 135 81 65 256 256 251 249 233 232 226 221 210 223 224 233 235 230 227
280 279 287 286 275 276 274 248 235 236 236 217 207 212 211 212 210 207 205 202 202 203 205 209 199 198 217 206 204 204 200 198 206 209 207 214 225 217 224 217 205 203 202 205 203 199 200 206 208 203 205 199 203 204 199 200 194 194 189 193 180 194 194 206 199 201 173 148 196 207 175 126 322 244 224 230 207 217 212 223 208 223 225 221 211
281 302 303 301 299 274 249 251 231 217 224 221 210 211 211 217 219 213 210 207 207 200 200 172 141 150 135 63 56 59 5 174 193 226 214 215 224 217 222 205 216 218 204 197 201 206 203 204 206 207 202 195 196 206 210 217 212 203 194 188 189 197 201 207 218 210 208 211 176 116 63 227 223 261 89 263 167 209 226 217 217 220 219 211 219
260 275 287 300 293 297 302 300 254 243 236 227 211 216 213 219 204 203 203 202 207 198 176 163 181 176 166 185 202 209 223 208 217 219 208 211 218 217 213 210 218 222 220 219 208 203 204 204 202 203 202 198 201 212 218 211 212 205 197 196 200 206 204 192 215 215 227 232 248 283 160 193 165 216 113 265 348 229 241 220 223 218 207 213 223
306 289 291 306 305 311 305 305 280 254 244 229 212 208 211 209 195 191 193 191 181 175 166 170 183 190 196 204 210 212 221 230 228 227 221 221 209 211 218 212 217 222 228 225 223 216 213 205 203 202 198 201 204 210 215 211 203 200 191 200 205 204 197 204 207 205 211 243 243 251 259 205 166 130 214 338 292 268 220 223 234 229 217 218 227
297 303 298 265 265 271 297 302 305 287 277 277 236 222 204 202 181 185 180 176 177 171 175 183 192 196 202 213 215 219 219 232 215 224 219 204 200 218 215 218 217 225 230 231 233 231 224 222 214 212 213 207 198 211 222 218 214 207 197 204 213 216 210 216 212 190 191 221 219 228 238 223 198 240 185 207 233 254 247 242 249 235 218 229 231
300 298 328 341 351 352 322 312 306 318 342 333 286 252 222 172 164 163 179 174 178 174 178 193 200 199 205 211 223 227 231 237 204 198 205 201 218 220 218 221 219 222 227 233 234 237 233 229 225 226 222 220 206 211 205 202 201 196 192 194 200 203 205 212 208 204 203 220 199 229 231 232 226 245 333 262 228 241 258 213 228 202 227 239 234
304 278 303 329 336 347 337 308 352 356 344 353 24 56 81 118 137 152 182 176 170 179 184 195 203 199 206 215 222 232 225 243 193 216 213 194 224 225 222 223 223 225 225 228 233 235 240 238 234 231 230 225 206 204 213 225 232 229 219 211 210 213 213 213 215 215 210 218 209 210 211 222 231 257 249 240 266 231 250 230 210 199 223 235 217
7 4 10 352 316 322 345 22 345 353 0 27 29 32 48 82 123 139 175 176 176 189 187 200 202 203 213 215 222 231 228 220 229 244 225 218 226 228 221 225 222 229 227 232 229 231 237 239 238 238 237 231 232 242 231 217 207 206 212 214 218 218 215 213 218 227 222 219 214 211 215 202 207 212 221 218 220 230 245 256 238 211 228 253 230
2 29 21 16 25 14 15 13 358 349 12 19 15 20 44 64 112 151 203 196 195 201 199 217 213 223 234 233 233 237 231 223 227 236 221 226 226 231 223 230 233 230 232 236 229 226 232 237 239 243 241 241 239 232 235 244 248 234 212 202 207 213 220 222 225 227 227 226 221 220 226 218 223 226 231 220 213 225 222 244 236 206 265 232 276
24 23 28 31 32 22 23 14 12 8 352 349 2 7 10 35 91 163 251 267 238 221 212 225 223 228 226 233 242 240 235 231 235 239 227 228 225 232 220 228 222 225 221 225 228 223 227 234 236 237 241 239 241 242 247 228 206 202 218 221 216 210 209 207 218 226 222 224 227 222 222 222 226 227 238 238 234 234 231 247 245 172 233 235 206
20 32 39 37 28 18 21 22 24 21 5 343 335 4 6 22 20 196 266 295 276 257 238 235 237 238 234 235 240 233 240 235 239 239 237 228 219 228 224 223 224 222 217 220 219 221 226 230 234 240 243 245 244 245 243 239 221 209 205 212 221 228 226 218 220 222 224 228 229 229 224 228 233 228 230 232 233 219 225 225 241 234 229 256 91
27 43 41 35 26 24 22 18 14 13 21 20 2 341 358 352 338 263 283 290 286 266 267 250 256 255 249 244 242 233 239 237 238 233 238 235 230 233 232 226 227 229 220 225 210 213 222 226 229 235 238 242 246 249 251 251 250 247 241 236 231 219 217 213 219 218 223 225 223 225 229 226 229 227 227 231 220 220 221 221 215 240 252 231 250
27 38 29 23 22 24 24 18 13 9 17 24 23 16 21 319 309 297 287 304 300 279 256 246 255 257 249 244 242 239 244 248 257 246 242 230 238 230 241 231 233 233 229 213 219 208 217 223 227 231 233 237 239 243 246 246 242 244 247 244 249 221 232 228 237 235 239 238 235 234 237 238 229 227 222 225 220 219 221 224 209 220 241 263 217
30 32 25 17 17 19 20 18 12 13 15 17 7 2 350 339 337 310 301 307 300 283 273 267 269 269 262 251 253 249 243 242 244 247 244 243 241 241 238 237 235 225 227 214 220 215 218 219 224 228 229 231 234 234 237 239 240 241 244 246 249 245 241 245 239 234 237 232 232 228 228 233 230 228 229 228 227 223 224 224 215 218 219 238 260
30 30 16 20 26 27 18 18 17 15 9 9 5 359 0 339 327 316 318 314 302 299 293 286 281 274 270 263 255 244 245 248 246 250 247 246 245 243 243 245 232 230 223 225 217 221 221 219 224 227 226 225 228 230 230 231 231 235 237 239 238 229 236 241 235 239 247 245 245 242 237 241 236 230 228 225 223 222 221 220 222 226 218 229 239
36 29 27 23 23 20 26 28 9 16 13 17 6 4 12 17 5 354 333 316 294 289 281 283 267 263 260 259 255 257 252 252 252 250 249 245 250 243 241 245 257 237 232 228 224 227 225 226 223 231 228 228 227 228 225 229 226 237 237 242 239 236 242 245 241 233 243 240 245 243 236 239 232 232 228 222 218 215 221 218 225 214 219 224 232
32 27 29 35 37 32 24 19 14 5 5 4 10 16 21 7 6 2 352 350 344 324 290 284 277 269 276 278 273 263 267 263 258 255 253 249 252 251 249 253 243 237 237 232 230 230 224 221 220 221 224 226 226 225 218 224 225 234 237 239 236 230 238 241 242 230 233 231 234 238 235 234 230 229 227 220 216 217 217 220 217 215 220 219 227
18 21 31 30 26 22 17 14 14 8 19 19 21 15 8 12 14 12 4 351 352 349 344 325 308 289 282 283 282 284 276 271 274 264 263 264 265 256 255 251 261 245 232 233 233 235 233 230 231 229 229 227 221 221 212 214 219 230 233 234 236 228 236 242 238 239 228 231 236 238 234 230 224 226 223 221 220 220 217 223 216 217 222 212 212
359 10 28 33 21 14 13 16 20 25 16 12 3 10 14 15 6 1 2 3 350 346 350 337 331 314 307 299 293 288 283 285 280 278 270 272 270 264 257 261 247 253 225 238 237 239 236 234 234 235 234 236 235 231 220 215 220 225 232 226 233 230 234 242 235 242 233 227 225 235 242 239 228 228 222 224 218 218 213 215 215 211 219 218 209
333 339 344 16 30 21 11 30 35 31 18 11 8 11 2 360 7 7 7 352 347 324 322 308 304 319 322 316 312 306 299 292 287 282 277 273 273 270 260 255 255 258 241 239 245 241 239 238 240 241 239 239 235 237 231 223 228 230 233 230 225 226 231 237 237 240 239 231 232 234 241 239 233 232 227 228 216 220 213 216 220 211 220 221 211
345 336 358 24 26 6 20 21 16 14 10 5 358 352 355 5 3 2 3 348 347 344 330 331 331 329 325 321 321 314 318 308 296 286 283 281 280 278 267 259 261 264 260 251 242 248 245 240 243 244 240 241 239 234 232 226 231 232 236 236 230 228 231 235 237 241 237 230 233 237 242 237 233 232 228 226 221 217 212 219 220 217 219 220 215
336 338 349 2 8 19 20 10 10 2 3 360 356 352 359 2 2 359 351 340 337 339 342 342 343 338 341 348 342 340 331 315 299 291 285 287 284 283 275 264 269 265 257 259 256 239 247 242 241 242 242 239 237 235 232 233 234 236 238 238 234 232 233 235 237 239 239 234 237 237 245 231 228 233 231 227 219 217 217 217 220 219 217 220 218
297 311 333 339 27 13 8 6 2 0 350 342 345 356 2 6 1 348 348 345 343 342 342 341 347 348 343 344 342 340 338 328 319 313 305 300 295 287 281 269 254 266 263 254 255 250 237 247 243 245 243 245 241 234 233 235 235 236 238 238 238 238 237 236 236 235 235 233 238 244 243 233 232 230 234 228 219 220 216 219 221 220 218 216 212
227 222 220 63 25 2 337 315 278 249 259 345 5 5 3 356 351 357 355 346 342 346 344 346 348 351 342 341 339 336 331 326 322 316 311 307 301 291 283 278 265 260 267 266 257 256 249 245 252 246 247 245 245 236 236 236 238 236 234 234 234 235 238 239 238 236 234 233 236 240 240 233 234 233 235 230 222 220 215 221 216 219 213 200 203
223 193 175 161 169 70 23 357 3 11 8 16 17 10 357 350 340 341 346 346 345 347 343 344 347 346 344 336 334 327 328 323 319 319 316 312 309 305 295 284 280 274 268 265 263 260 260 245 251 248 251 247 247 245 239 239 238 236 233 234 231 232 234 238 240 239 235 234 234 236 237 234 232 234 231 232 221 223 215 223 218 211 198 192 199
41 24 23 18 12 358 357 0 359 3 5 0 360 356 351 341 332 333 339 341 340 338 336 336 339 341 335 328 323 324 320 319 320 320 320 319 316 310 306 300 289 279 271 266 267 265 269 264 257 252 255 246 245 244 238 236 240 239 232 235 230 229 230 235 238 238 235 235 238 238 239 238 235 236 232 230 225 218 207 217 213 193 193 192 187
19 5 3 7 359 357 352 348 359 0 355 351 350 349 348 339 336 337 335 331 341 329 326 325 326 317 312 313 314 314 315 315 317 319 317 315 312 309 306 302 295 286 281 275 272 265 260 265 268 264 257 252 248 247 241 237 234 236 234 234 232 231 228 231 235 239 237 230 233 232 236 234 236 236 236 235 232 224 216 212 206 187 188 189 185
6 354 355 351 347 348 350 355 351 351 346 341 334 327 325 320 324 327 327 322 314 308 321 328 327 317 308 301 305 301 299 303 297 298 300 303 304 305 305 301 296 291 286 285 278 274 265 259 260 263 264 257 253 250 245 242 242 238 235 234 231 234 228 230 231 233 237 232 230 227 231 232 233 236 235 233 230 226 221 220 211 196 190 183 179
346 339 342 351 350 347 348 341 338 336 338 339 335 332 331 336 335 335 334 328 336 342 346 342 327 322 322 326 321 312 309 301 299 296 295 291 289 291 291 289 290 291 287 284 280 270 272 269 266 264 261 259 257 251 247 247 245 245 238 235 233 232 229 228 228 230 234 231 230 226 225 222 222 224 224 227 229 226 221 217 207 197 197 195 187
331 326 329 326 333 331 322 325 330 331 332 328 327 327 331 331 333 329 332 341 346 347 341 341 343 342 343 343 340 340 336 334 332 325 313 308 300 297 294 296 292 285 287 280 270 274 269 268 264 267 266 260 258 253 250 250 248 245 241 236 238 234 233 234 228 229 229 228 225 227 230 220 222 219 219 215 213 219 217 205 194 191 194 194 197
273 254 260 277 302 315 315 306 299 302 306 302 310 303 306 312 313 325 338 343 344 342 343 337 340 344 343 342 342 341 338 334 332 331 331 330 330 325 315 298 294 299 289 286 282 273 273 267 262 262 268 269 262 259 250 250 249 245 243 238 240 237 236 236 234 228 228 224 220 220 223 225 212 206 205 202 195 194 178 169 169 174 177 186 183
311 325 317 293 278 290 302 312 314 313 307 310 310 312 310 321 335 337 339 335 338 330 333 336 337 337 342 343 341 340 336 334 333 334 334 333 333 328 329 327 321 317 313 305 302 298 285 274 270 264 269 272 267 263 257 253 251 248 244 240 239 239 238 237 234 229 224 222 216 218 217 219 203 201 202 191 188 175 164 162 157 158 150 147 139
304 303 302 312 318 312 307 302 291 298 303 312 324 331 338 332 330 331 333 336 332 333 330 338 338 338 340 339 338 333 331 331 330 330 330 328 328 327 324 324 320 314 304 293 290 279 284 288 280 275 277 276 275 266 262 260 256 254 247 242 239 237 238 235 231 224 223 220 217 208 211 209 199 205 203 198 186 164 163 160 150 135 127 119 104
267 236 271 278 279 290 300 309 324 335 341 344 339 342 339 334 342 344 342 339 340 337 339 337 331 330 331 332 332 327 324 323 323 323 321 321 324 322 321 321 313 311 308 307 300 294 291 288 288 281 275 279 281 274 266 264 260 257 253 247 239 239 238 236 232 225 226 220 211 203 204 205 198 199 198 195 184 169 159 151 147 145 135 119 117
275 296 298 305 308 312 321 342 333 334 339 341 346 345 343 341 339 341 344 339 341 335 334 333 328 329 326 326 325 321 316 316 316 315 313 310 310 302 301 313 307 309 307 305 304 301 294 283 283 283 272 279 284 277 268 268 261 256 246 245 239 238 240 236 240 231 224 221 212 208 200 197 192 190 191 188 178 171 162 159 152 143 140 133 134
309 319 329 332 333 337 323 337 342 338 336 346 341 340 338 329 328 331 334 330 328 326 331 328 322 319 318 316 316 313 310 308 308 305 306 305 307 305 303 306 296 291 289 294 299 294 294 289 274 276 282 276 280 281 272 270 262 257 250 242 238 236 244 242 235 235 219 215 212 207 201 192 188 186 188 185 180 176 163 163 158 150 149 147 155
340 339 314 306 323 346 342 340 339 326 331 332 334 334 325 317 319 323 323 321 319 321 316 311 308 307 304 303 301 302 297 295 297 298 297 292 295 300 300 301 298 292 292 297 295 290 290 291 290 283 282 273 277 278 269 271 266 259 251 245 245 245 248 248 232 230 225 223 211 203 201 198 194 190 190 187 184 175 168 162 161 159 156 160 156
326 316 337 341 326 332 306 305 306 311 318 319 328 333 322 319 318 321 312 310 313 314 314 312 311 309 308 306 303 295 299 298 287 289 294 293 289 291 300 303 302 303 299 296 295 295 291 288 290 281 280 276 265 273 274 262 264 261 255 245 238 241 247 244 243 232 226 217 207 208 205 203 197 194 194 191 182 173 167 169 173 172 165 143 139
295 302 334 316 315 313 306 304 295 302 311 313 323 317 304 309 313 304 299 308 315 315 314 314 311 310 307 306 306 306 299 293 298 300 299 298 295 285 284 292 295 295 300 298 297 297 295 292 293 282 275 276 271 263 270 269 260 255 246 235 229 235 233 242 245 241 229 222 210 207 203 200 199 195 194 191 184 177 173 169 169 149 136 140 137
342 347 326 309 308 306 301 298 309 315 315 310 324 314 307 310 305 298 310 316 315 315 313 310 308 306 304 302 302 301 301 304 299 297 292 291 295 298 292 292 294 298 297 297 296 300 298 297 297 287 277 276 272 269 266 266 261 256 248 243 235 230 239 229 229 234 221 213 197 196 197 197 195 191 191 190 185 178 170 167 158 143 145 139 133
309 293 295 303 278 279 286 291 295 296 296 300 310 305 307 306 298 303 312 311 312 310 307 303 300 297 298 298 299 297 295 293 290 293 291 288 293 296 294 287 288 292 295 297 297 295 294 294 296 298 290 275 272 267 269 268 267 265 263 256 249 243 234 215 213 215 199 191 192 194 194 195 191 188 190 190 184 176 168 170 153 148 143 139 136
269 287 294 305 291 299 300 302 307 315 324 326 313 302 297 293 292 309 306 310 310 311 309 304 302 300 299 298 300 297 297 296 292 288 293 295 295 298 299 298 291 288 285 284 287 292 285 289 292 290 291 286 279 280 275 274 268 267 266 263 257 249 244 228 215 228 192 196 204 203 200 198 195 194 196 189 177 176 170 166 154 147 142 140 140
285 284 307 297 294 291 299 302 310 313 313 321 311 294 291 288 301 304 303 303 308 309 308 304 304 303 302 305 305 302 300 293 291 285 273 275 282 292 292 292 294 281 281 278 283 289 282 281 283 286 287 289 297 290 281 277 274 264 262 259 257 251 218 209 202 211 212 207 206 200 199 201 201 200 192 182 170 169 165 162 148 140 137 143 139
335 329 343 335 330 320 306 300 299 302 307 312 312 294 282 297 305 302 301 300 301 300 295 295 294 297 297 298 295 295 300 301 294 286 277 272 270 275 279 280 281 284 283 279 273 276 280 277 278 283 286 290 283 275 270 268 266 266 266 268 258 226 199 196 175 199 204 201 200 199 194 195 193 192 171 141 130 145 145 138 133 138 144 142 141
345 333 334 326 316 310 315 319 315 317 321 318 318 314 310 310 309 309 303 299 297 296 297 297 297 293 290 290 289 287 289 291 291 289 289 292 279 260 269 274 278 279 284 284 281 272 271 273 276 278 284 282 275 263 250 246 248 237 240 224 147 119 129 109 116 134 159 187 175 193 192 183 173 149 132 134 135 127 121 121 123 134 134 120 110
338 330 336 319 320 325 321 318 311 317 320 320 318 315 314 314 311 307 304 306 305 304 300 298 297 294 290 286 278 282 285 290 292 291 268 247 269 281 269 269 256 241 248 266 277 273 268 265 267 270 275 281 273 264 253 226 227 224 201 168 162 160 141 146 167 171 163 175 171 187 191 178 161 146 136 132 123 117 111 112 114 109 95 99 106
320 320 319 325 330 319 310 308 307 317 317 313 310 309 308 305 304 306 310 313 313 312 309 307 309 304 304 304 303 297 293 290 291 295 300 292 247 235 242 258 273 252 248 250 253 262 264 264 267 263 247 258 270 272 273 238 230 216 197 185 172 162 163 155 169 175 167 176 189 201 184 157 143 133 130 130 128 118 111 105 109 105 110 122 127
330 332 333 330 317 311 307 305 307 313 311 308 307 309 308 307 310 322 328 322 321 317 311 308 311 309 307 307 303 302 299 295 290 291 293 295 305 294 248 246 254 255 250 255 261 263 268 263 250 269 265 260 269 266 257 239 221 201 179 164 165 165 165 169 174 169 174 186 183 130 124 125 120 121 121 123 120 124 123 120 112 113 117 123 122